Change the Weather History Date:

Friday, July 12, 2013

  Actual Average (KDAY) Record (KDAY)
Temperature  
Mean Temperature 66 °F 74 °F  
Max Temperature 78 °F 84 °F 103 °F (1936)
Min Temperature 53 °F 65 °F 49 °F (1898)
Degree Days  
Heating Degree Days 0 0  
Month to date heating degree days 0  
Since 1 June heating degree days 22  
Since 1 July heating degree days 0  
Cooling Degree Days 0 9  
Month to date cooling degree days 108  
Year to date cooling degree days 368  
Since 1 June cooling degree days 298  
Growing Degree Days 16 (Base 50)    
Moisture  
Dew Point 57 °F    
Average Humidity 75    
Maximum Humidity 100    
Minimum Humidity 47    
Precipitation  
Precipitation 0.00 in 0.15 in 2.16 in (1990)
Month to date precipitation 1.73  
Year to date precipitation 22.94  
Snow  
Snow 0.00 in 0.00 in 0.00 in ()
Month to date snowfall 0.0  
Since 1 June snowfall 0.0  
Since 1 July snowfall 0.0  
Snow Depth -    
Sea Level Pressure  
Sea Level Pressure 30.08 in    
Wind  
Wind Speed 4 mph (NNE)    
Max Wind Speed 14 mph    
Max Gust Speed 21 mph    
Visibility 10 miles    
Events      
T = Trace of Precipitation, MM = Missing Value Source: NWS Daily Summary

Daily Weather History Graph

Daily Weather History Graph

Search for Another Location

Airport or City:

Trip Planner

Search our weather history database for the weather conditions in past years. The results will help you decide how hot, cold, wet, or windy it might be!

Date:

Astronomy

Jul. 12, 2013 Rise Set
Actual Time 6:15 AM EDT 9:05 PM EDT
Civil Twilight 5:43 AM EDT 9:37 PM EDT
Nautical Twilight 5:02 AM EDT 10:18 PM EDT
Astronomical Twilight 4:16 AM EDT 11:05 PM EDT
Moon 10:32 AM EDT (7/12) 11:14 PM EDT (7/12)
Length of Visible Light 15h 54m
Length of Day
14h 49m
Waxing Crescent, 17% of the Moon is Illuminated
Jul 12
Waxing Crescent
Jul 15
First Quarter
Jul 22
Full
Jul 29
Last Quarter
Aug 6
New

Hourly Weather History & Observations

Time (EDT) Temp. Dew Point Humidity Pressure Visibility Wind Dir Wind Speed Gust Speed Precip Events Conditions
12:15 AM 60.8 °F 57.2 °F 88% 30.04 in 10.0 mi Calm Calm - 0.00 in   Clear
12:35 AM 60.8 °F 57.2 °F 88% 30.04 in 10.0 mi Calm Calm - 0.00 in   Clear
12:55 AM 60.8 °F 57.2 °F 88% 30.04 in 10.0 mi Calm Calm - 0.00 in   Clear
1:15 AM 60.8 °F 57.2 °F 88% 30.04 in 10.0 mi Calm Calm - 0.00 in   Clear
1:35 AM 60.8 °F 57.2 °F 88% 30.05 in 10.0 mi Calm Calm - 0.00 in   Clear
1:55 AM 60.8 °F 55.4 °F 82% 30.05 in 10.0 mi Calm Calm - 0.00 in   Clear
2:15 AM 60.8 °F 55.4 °F 82% 30.05 in 10.0 mi Calm Calm - 0.00 in   Clear
2:35 AM 60.8 °F 55.4 °F 82% 30.05 in 10.0 mi Calm Calm - 0.00 in   Clear
2:55 AM 60.8 °F 55.4 °F 82% 30.05 in 10.0 mi Calm Calm - 0.00 in   Clear
3:15 AM 60.8 °F 55.4 °F 82% 30.05 in 10.0 mi Calm Calm - 0.00 in   Clear
3:35 AM 60.8 °F 55.4 °F 82% 30.05 in 10.0 mi Calm Calm - 0.00 in   Clear
3:55 AM 59.0 °F 55.4 °F 88% 30.06 in 10.0 mi Calm Calm - 0.00 in   Clear
4:15 AM 59.0 °F 55.4 °F 88% 30.05 in 10.0 mi Calm Calm - 0.00 in   Clear
4:35 AM 57.2 °F 55.4 °F 94% 30.06 in 10.0 mi Calm Calm - 0.00 in   Clear
4:55 AM 57.2 °F 55.4 °F 94% 30.06 in 10.0 mi Calm Calm - 0.00 in   Clear
5:15 AM 57.2 °F 55.4 °F 94% 30.06 in 10.0 mi Calm Calm - 0.00 in   Clear
5:35 AM 57.2 °F 57.2 °F 100% 30.05 in 10.0 mi Calm Calm - 0.00 in   Clear
5:55 AM 55.4 °F 55.4 °F 100% 30.06 in 10.0 mi Calm Calm - 0.00 in   Clear
6:15 AM 55.4 °F 55.4 °F 100% 30.07 in 10.0 mi Calm Calm - 0.00 in   Clear
6:35 AM 55.4 °F 55.4 °F 100% 30.07 in 10.0 mi Calm Calm - 0.00 in   Clear
6:55 AM 55.4 °F 55.4 °F 100% 30.08 in 10.0 mi Calm Calm - 0.00 in   Clear
7:15 AM 53.6 °F 53.6 °F 100% 30.09 in 7.0 mi NNW 4.6 mph - 0.00 in   Clear
7:35 AM 53.6 °F 53.6 °F 100% 30.10 in 7.0 mi North 6.9 mph - 0.00 in   Clear
7:55 AM 55.4 °F 55.4 °F 100% 30.10 in 10.0 mi North 4.6 mph - 0.00 in   Clear
8:15 AM 55.4 °F 55.4 °F 100% 30.11 in 9.0 mi North 3.5 mph - 0.00 in   Clear
8:35 AM 57.2 °F 57.2 °F 100% 30.11 in 10.0 mi Calm Calm - 0.00 in   Clear
8:55 AM 60.8 °F 60.8 °F 100% 30.11 in 10.0 mi North 5.8 mph - 0.00 in   Clear
9:15 AM 62.6 °F 60.8 °F 94% 30.11 in 10.0 mi NNE 6.9 mph - 0.00 in   Clear
9:35 AM 62.6 °F 60.8 °F 94% 30.11 in 10.0 mi NNE 8.1 mph - 0.00 in   Clear
9:55 AM 64.4 °F 59.0 °F 83% 30.12 in 10.0 mi NE 10.4 mph - 0.00 in   Clear
10:15 AM 66.2 °F 59.0 °F 78% 30.12 in 10.0 mi NNE 10.4 mph - 0.00 in   Clear
10:35 AM 66.2 °F 59.0 °F 78% 30.12 in 10.0 mi North 10.4 mph - 0.00 in   Clear
10:55 AM 66.2 °F 57.2 °F 73% 30.12 in 10.0 mi North 11.5 mph - 0.00 in   Clear
11:15 AM 68.0 °F 57.2 °F 68% 30.12 in 10.0 mi NNE 13.8 mph - 0.00 in   Clear
11:35 AM 69.8 °F 57.2 °F 64% 30.12 in 10.0 mi North 13.8 mph - 0.00 in   Clear
11:55 AM 69.8 °F 57.2 °F 64% 30.12 in 10.0 mi North 9.2 mph - 0.00 in   Clear
12:15 PM 69.8 °F 57.2 °F 64% 30.12 in 10.0 mi North 13.8 mph 18.4 mph 0.00 in   Clear
12:35 PM 71.6 °F 55.4 °F 57% 30.12 in 10.0 mi NNE 10.4 mph 18.4 mph 0.00 in   Clear
12:55 PM 71.6 °F 57.2 °F 60% 30.12 in 10.0 mi NNE 13.8 mph - 0.00 in   Partly Cloudy
1:15 PM 71.6 °F 57.2 °F 60% 30.11 in 10.0 mi North 11.5 mph 18.4 mph 0.00 in   Partly Cloudy
1:35 PM 73.4 °F 57.2 °F 57% 30.11 in 10.0 mi North 11.5 mph 17.3 mph 0.00 in   Partly Cloudy
1:55 PM 71.6 °F 57.2 °F 60% 30.11 in 10.0 mi ENE 10.4 mph - 0.00 in   Partly Cloudy
2:15 PM 73.4 °F 59.0 °F 61% 30.10 in 10.0 mi NE 10.4 mph - 0.00 in   Partly Cloudy
2:35 PM 73.4 °F 57.2 °F 57% 30.09 in 10.0 mi NE 10.4 mph 20.7 mph 0.00 in   Scattered Clouds
2:55 PM 73.4 °F 57.2 °F 57% 30.09 in 10.0 mi NNE 10.4 mph - 0.00 in   Partly Cloudy
3:15 PM 75.2 °F 57.2 °F 53% 30.09 in 10.0 mi NNE 10.4 mph - 0.00 in   Partly Cloudy
3:35 PM 75.2 °F 55.4 °F 50% 30.09 in 10.0 mi NNE 8.1 mph - 0.00 in   Scattered Clouds
3:55 PM 75.2 °F 57.2 °F 53% 30.09 in 10.0 mi ENE 8.1 mph - 0.00 in   Scattered Clouds
4:15 PM 75.2 °F 57.2 °F 53% 30.09 in 10.0 mi NNE 9.2 mph - 0.00 in   Mostly Cloudy
4:35 PM 75.2 °F 57.2 °F 53% 30.09 in 10.0 mi NE 10.4 mph 16.1 mph 0.00 in   Mostly Cloudy
4:55 PM 75.2 °F 57.2 °F 53% 30.08 in 10.0 mi NE 10.4 mph - 0.00 in   Mostly Cloudy
5:15 PM 75.2 °F 57.2 °F 53% 30.08 in 10.0 mi NE 9.2 mph - 0.00 in   Mostly Cloudy
5:35 PM 75.2 °F 57.2 °F 53% 30.08 in 10.0 mi NE 6.9 mph - 0.00 in   Mostly Cloudy
5:55 PM 75.2 °F 57.2 °F 53% 30.08 in 10.0 mi ENE 9.2 mph - 0.00 in   Mostly Cloudy
6:15 PM 78.8 °F 57.2 °F 47% 30.07 in 10.0 mi NE 10.4 mph - 0.00 in   Scattered Clouds
6:35 PM 75.2 °F 59.0 °F 57% 30.07 in 10.0 mi NNE 10.4 mph - 0.00 in   Scattered Clouds
6:55 PM 75.2 °F 60.8 °F 61% 30.07 in 10.0 mi NNE 9.2 mph - 0.00 in   Scattered Clouds
7:15 PM 73.4 °F 59.0 °F 61% 30.07 in 10.0 mi NNE 6.9 mph - 0.00 in   Scattered Clouds
7:35 PM 73.4 °F 59.0 °F 61% 30.07 in 10.0 mi NNE 6.9 mph - 0.00 in   Scattered Clouds
7:55 PM 75.2 °F 59.0 °F 57% 30.07 in 10.0 mi North 9.2 mph - 0.00 in   Scattered Clouds
8:15 PM 75.2 °F 59.0 °F 57% 30.08 in 10.0 mi NNE 12.7 mph - 0.00 in   Mostly Cloudy
8:35 PM 73.4 °F 59.0 °F 61% 30.08 in 10.0 mi NNE 8.1 mph - 0.00 in   Mostly Cloudy
8:55 PM 73.4 °F 59.0 °F 61% 30.09 in 10.0 mi NE 12.7 mph - 0.00 in   Mostly Cloudy
9:15 PM 71.6 °F 59.0 °F 64% 30.09 in 10.0 mi NNE 9.2 mph - 0.00 in   Scattered Clouds
9:35 PM 71.6 °F 59.0 °F 64% 30.09 in 10.0 mi NE 8.1 mph - 0.00 in   Scattered Clouds
9:55 PM 69.8 °F 59.0 °F 68% 30.09 in 10.0 mi NNE 6.9 mph - 0.00 in   Partly Cloudy
10:15 PM 69.8 °F 60.8 °F 73% 30.09 in 10.0 mi NNE 6.9 mph - 0.00 in   Clear
10:35 PM 68.0 °F 60.8 °F 78% 30.09 in 10.0 mi NNE 6.9 mph - 0.00 in   Clear
10:55 PM 68.0 °F 60.8 °F 78% 30.09 in 10.0 mi NE 4.6 mph - 0.00 in   Clear
11:15 PM 68.0 °F 60.8 °F 78% 30.10 in 10.0 mi NNE 5.8 mph - 0.00 in   Clear
11:35 PM 68.0 °F 60.8 °F 78% 30.11 in 10.0 mi North 4.6 mph - 0.00 in   Clear
11:55 PM 66.2 °F 60.8 °F 83% 30.11 in 10.0 mi ENE 5.8 mph - 0.00 in   Clear